#timestamp,LO_Frequency,Hit,StdDev 
1548799215.3,286047016.2,N
1548799235.1,286047027.6,N
1548799255.9,286047030.0,N
1548799275.7,286047028.5,N
1548799295.6,286047030.0,N
1548799315.4,286047037.3,N
1548799335.2,286047034.4,N
1548799355.1,286047032.4,N
1548799356.0,286047032.4,N
1548799375.8,286047039.7,N
1548799395.7,286047041.3,N
1548799415.5,286047041.0,N
1548799435.3,286047038.8,N
1548799455.2,286047038.6,N
1548799475.0,286047047.6,N
1548799475.9,286047047.6,N
1548799495.7,286047053.9,N
1548799515.6,286047053.6,N
1548799535.4,286047053.5,N
1548799555.3,286047050.8,N
1548799575.1,286047045.2,N
1548799576.0,286047045.2,N
1548799595.8,286047041.3,N
1548799615.7,286047039.8,N
1548799635.5,286047040.4,N
1548799655.4,286047030.7,N
1548799675.2,286047033.0,N
1548799695.0,286047021.0,N
1548799695.9,286047021.0,N
1548799715.8,286047018.2,N
1548799735.6,286047021.7,N
1548799755.4,286047018.8,N
1548799775.3,286047013.6,N
1548799795.1,286047013.3,N
1548799815.9,286047013.0,N
1548799835.7,286047013.0,N
1548799855.5,286047014.0,N
1548799875.4,286047019.2,N
1548799895.2,286047023.9,N
1548799915.1,286047034.7,N
1548799916.0,286047034.7,N
1548799935.8,286047028.7,N
1548799955.6,286047037.7,N
1548799975.5,286047044.7,Y
1548799995.3,286047008.0,P
1548800015.1,286047011.9,N
1548800035.9,286047010.9,N
1548800055.7,286047016.4,N
1548800075.6,286047016.4,N
1548800095.4,286047016.3,N
1548800115.2,286047016.5,N
1548800135.1,286047021.7,Y
1548800136.0,286047021.7,P
1548800155.8,286047008.3,N
1548800175.7,286047015.6,N
1548800195.5,286047013.0,N
1548800215.3,286047007.8,N
1548800235.2,286047007.4,N
1548800255.0,286047008.0,N
1548800255.9,286047008.0,N
1548800275.8,286047006.1,N
1548800295.6,286047012.8,N
1548800315.4,286047014.0,N
1548800335.3,286047008.9,N
1548800355.1,286047005.0,N
1548800375.8,286047004.0,N
1548800395.7,286047002.5,N
1548800415.5,286047013.2,N
1548800435.4,286047011.4,N
1548800455.2,286047020.3,Y
1548800475.0,286047006.2,P
1548800475.9,286047006.2,P
1548800495.8,286047004.9,N
1548800515.6,286047001.5,N
1548800535.5,286047002.0,N
1548800555.3,286047003.4,N
1548800575.1,286046997.5,N
1548800595.9,286046999.1,N
1548800615.7,286047004.3,N
1548800635.5,286047004.7,N
1548800655.4,286047011.7,Y
1548800675.2,286047003.8,P
1548800695.1,286047002.8,P
1548800696.0,286047002.8,P
1548800715.8,286046995.9,Y
1548800735.6,286046987.1,P
1548800755.5,286046988.4,N
1548800775.3,286046974.4,P
1548800795.2,286046974.6,N
1548800815.9,286046971.0,N
1548800835.7,286046971.9,N
1548800855.6,286046973.9,N
1548800875.4,286046973.9,N
1548800895.3,286046972.9,N
1548800915.1,286046982.9,N
1548800916.0,286046982.9,N
1548800935.8,286046981.8,N
1548800955.7,286046982.7,N
1548800975.5,286046989.7,N
1548800995.3,286046998.5,N
1548801015.2,286046999.9,N
1548801035.0,286046999.0,N
1548801035.9,286046999.0,N
1548801055.8,286047004.5,N
1548801075.6,286046998.9,N
1548801095.4,286047000.3,N
1548801115.3,286047002.1,N
1548801135.1,286047005.7,N
1548801155.9,286047005.8,N
1548801175.7,286047001.8,N
1548801195.5,286047004.6,N
1548801215.4,286047008.2,N
1548801235.2,286047003.3,N
1548801255.0,286047010.8,N
1548801256.0,286047010.8,N
1548801275.8,286047009.0,N
1548801295.6,286047009.7,N
1548801315.5,286047009.9,N
1548801335.3,286047011.5,N
1548801355.1,286047007.5,N
1548801375.9,286047001.6,N
1548801395.7,286046999.7,N
1548801415.6,286047003.5,N
1548801435.4,286047005.3,N
1548801455.2,286047007.4,N
1548801475.1,286047000.0,N
1548801476.0,286047000.0,N
1548801495.8,286046993.6,N
1548801515.6,286046989.9,N
1548801535.5,286046986.2,N
1548801555.3,286046990.1,N
1548801575.2,286046998.4,N
1548801595.9,286046993.9,N
1548801615.7,286047001.7,N
1548801635.6,286047006.8,N
1548801655.4,286047001.7,N
1548801675.3,286046999.2,N
1548801695.1,286046997.1,N
1548801696.0,286046997.1,N
1548801715.8,286046999.9,N
1548801735.7,286046999.2,N
1548801755.5,286047005.7,N
1548801775.3,286046998.7,N
1548801795.2,286046995.7,N
1548801815.0,286046996.1,N
1548801815.9,286046996.1,N
1548801835.8,286046994.6,N
1548801855.6,286046993.5,N
1548801875.4,286046996.1,N
1548801895.3,286046992.2,N
1548801915.1,286046991.1,N
1548801935.9,286046996.3,N
1548801955.7,286046992.4,N
1548801975.5,286046983.7,Y
1548801995.4,286046994.8,P
1548802015.2,286046994.0,P
1548802035.1,286046994.7,P
1548802036.0,286046994.7,Y
1548802055.8,286046999.8,P
1548802075.6,286046999.2,N
1548802095.5,286046998.6,N
1548802115.3,286046999.5,N
1548802135.2,286047000.4,N
1548802155.9,286046997.2,N
1548802175.7,286046999.4,N
1548802195.6,286046992.5,Y
1548802215.4,286047004.9,P
1548802235.2,286046999.9,N
1548802255.1,286047001.2,N
1548802256.0,286047001.2,N
1548802275.8,286046990.2,Y
1548802295.7,286046979.6,P
1548802315.5,286046980.8,N
1548802335.3,286046987.8,N
1548802355.2,286046980.0,N
1548802375.0,286046989.6,N
1548802375.9,286046989.6,N
1548802395.8,286046987.6,N
1548802415.6,286046981.2,N
1548802435.4,286046986.8,N
1548802455.3,286046996.2,N
1548802475.1,286046990.6,N
1548802495.8,286046997.4,N
1548802515.7,286046996.3,N
1548802535.5,286046995.8,N
1548802555.4,286046981.4,N
1548802575.2,286046973.3,Y
1548802595.0,286046983.5,P
1548802595.9,286046983.5,P
1548802615.8,286046981.7,P
1548802635.6,286046983.7,Y
1548802655.5,286047010.5,P
1548802675.3,286047013.1,N
1548802695.1,286047013.2,N
1548802715.9,286047014.3,N
1548802735.7,286047023.6,N
1548802755.6,286047023.7,N
1548802775.4,286047026.3,N
1548802795.2,286047021.4,N
